Theta_e
318 318 317 319 319 316 313 312 309 306 307 295 292 291 289 289 290 291 292 295 298 300 299 298 297 296 296 295 294 294 294 293 293 292 293 293 293 293
318 317 316 317 318 317 315 313 312 309 306 293 290 288 289 289 291 290 291 292 296 298 299 298 297 296 295 295 294 293 292 292 292 291 291 291 291 292
318 317 316 317 316 316 316 314 311 309 305 291 288 288 287 287 288 289 289 290 291 295 297 297 296 295 295 294 294 293 293 292 291 290 290 290 290 290
317 316 315 316 315 316 314 309 308 303 300 293 285 285 286 288 288 287 287 288 288 291 294 296 295 295 294 294 294 293 293 292 291 290 289 289 289 288
317 316 316 315 312 312 305 301 299 295 295 289 287 287 285 286 286 286 285 286 287 289 292 293 293 293 294 294 294 293 292 292 291 290 290 288 287 287
312 309 306 305 304 303 300 298 293 291 290 289 286 285 285 285 286 284 283 285 285 286 288 289 290 291 293 293 293 292 292 292 291 290 289 288 287 286
299 299 297 295 295 298 296 293 292 289 288 287 285 284 283 283 283 284 284 284 284 287 286 286 288 289 290 291 291 291 292 291 291 290 289 289 287 286
295 293 292 289 293 295 295 294 294 290 287 287 287 286 285 285 285 284 283 282 282 287 285 285 285 286 286 288 288 290 291 291 291 290 289 289 288 287
292 291 289 289 289 291 293 293 292 293 292 290 288 287 286 286 286 284 285 285 285 282 284 283 284 284 286 285 287 288 289 290 290 290 289 289 288 287
291 290 290 289 289 288 289 288 287 287 288 287 288 287 287 287 287 286 285 284 283 282 283 282 281 283 283 284 286 287 289 289 289 289 290 290 288 287
287 288 288 288 289 290 286 285 285 285 289 289 289 290 290 289 288 285 283 282 282 282 282 283 281 281 282 282 283 285 287 288 289 289 289 289 288 286
286 286 286 287 288 290 286 285 285 285 286 285 286 288 289 288 288 287 286 282 280 280 281 282 280 281 280 281 280 281 283 287 288 289 289 289 288 283
284 284 285 289 289 290 288 286 286 286 287 285 285 285 285 285 286 285 284 283 282 282 281 282 280 280 280 279 280 280 280 281 283 284 287 289 288 285
284 284 285 289 290 290 287 288 289 286 285 284 284 283 284 283 284 283 283 283 284 283 283 282 282 280 279 278 278 279 279 280 280 281 281 283 285 285
285 286 287 289 290 289 289 289 284 285 284 283 282 282 282 283 283 283 283 284 284 284 284 284 282 281 280 279 280 279 279 279 279 279 279 278 278 278
285 286 287 287 287 285 285 286 284 284 282 281 280 280 281 281 281 281 281 282 281 281 282 284 283 283 281 280 280 280 279 278 278 278 277 277 276 276
280 281 283 283 282 282 282 282 283 283 282 281 281 280 280 280 280 281 281 281 280 279 280 280 282 282 282 281 279 278 278 278 279 279 275 275 276 276
276 279 279 279 278 279 279 280 281 280 281 282 281 281 279 279 279 279 280 279 278 278 278 279 279 278 277 277 280 278 277 277 278 277 276 274 275 276
279 279 278 278 277 277 277 276 277 278 277 279 279 279 279 279 279 278 277 277 276 277 277 278 277 276 273 272 276 281 277 277 276 275 275 274 274 274
280 280 279 279 278 277 277 276 275 276 277 277 277 276 276 276 275 274 275 274 274 274 274 274 275 275 273 273 273 275 278 276 275 275 274 273 273 275
278 278 278 277 277 277 277 275 272 273 272 272 272 271 271 272 271 272 272 271 271 271 271 271 273 275 275 273 270 270 273 276 276 274 274 272 272 270
270 269 269 268 268 268 269 268 269 269 269 269 269 268 269 269 269 269 269 269 269 270 270 271 272 271 270 269 267 267 269 271 273 275 276 276 273 269
264 264 265 264 265 265 265 266 265 266 265 265 265 266 266 266 267 268 268 267 267 267 267 267 268 269 267 267 266 266 265 266 269 269 271 274 275 276
Wind_Speed
12 13 12 11 9 10 10 10 11 10 10 6 4 7 7 9 13 12 11 16 17 18 18 17 14 11 10 8 7 6 6 3 6 5 6 7 8 10
10 12 12 10 11 10 11 11 10 11 10 3 3 4 7 7 10 8 8 11 16 16 18 18 14 15 13 11 11 8 7 6 8 5 5 7 7 9
12 12 14 14 10 10 9 9 8 8 10 2 3 2 6 8 9 10 7 8 5 13 16 15 15 15 14 13 13 12 12 10 9 7 5 6 7 8
13 13 14 10 12 12 7 8 7 3 3 4 2 3 3 11 10 10 9 8 7 12 15 15 17 17 17 17 17 17 16 14 12 10 6 7 8 8
13 13 13 12 10 7 2 3 4 3 3 3 5 1 2 6 6 6 8 7 5 10 15 17 18 19 20 21 20 20 18 17 15 13 11 7 8 8
4 1 3 3 5 6 5 5 4 4 4 4 3 3 2 4 6 6 5 3 5 5 11 12 13 16 20 21 20 19 17 19 17 14 14 10 9 8
4 4 4 2 3 3 4 5 7 5 4 4 3 4 4 5 10 6 6 5 6 7 7 7 7 8 10 18 18 17 21 22 20 16 16 14 11 9
4 4 4 3 3 5 7 10 10 8 7 6 5 5 7 6 8 8 6 5 5 8 7 8 7 8 7 8 17 21 21 22 21 19 18 16 13 11
4 4 3 1 2 3 5 8 10 10 6 6 5 4 6 8 9 8 8 6 5 4 7 5 6 7 6 8 19 19 21 23 22 20 20 16 14 14
3 2 2 4 3 3 4 2 2 2 1 2 4 4 3 8 11 6 8 4 2 4 6 4 3 4 3 6 13 15 18 20 20 20 20 18 14 14
4 3 2 3 2 5 4 5 3 2 3 5 6 8 10 15 11 7 7 7 5 4 6 1 2 2 2 2 3 10 14 15 18 18 18 15 13 13
3 4 5 3 3 7 4 5 4 3 5 5 4 5 5 8 14 5 6 7 3 2 5 6 2 1 2 1 2 3 5 13 13 14 15 16 13 4
3 2 2 4 6 9 5 3 3 5 6 4 3 2 2 2 4 4 4 6 4 1 4 4 2 2 2 2 2 2 3 3 5 5 10 15 15 11
3 2 2 4 6 8 4 4 6 5 3 3 3 2 2 3 1 3 4 3 0 3 7 6 2 4 3 2 4 2 3 4 4 5 5 7 11 12
2 4 5 5 7 6 5 5 5 2 2 1 0 1 1 2 2 1 1 2 3 3 5 7 6 5 6 6 6 4 4 3 5 5 3 5 6 5
6 5 8 9 10 7 4 4 3 3 2 2 1 2 2 1 3 4 3 4 3 3 5 7 8 8 7 7 7 8 5 6 2 5 5 4 5 6
5 6 6 5 4 3 3 3 2 1 1 1 2 2 1 1 1 2 2 2 4 2 4 2 6 7 7 8 7 7 7 6 6 5 4 6 6 6
5 6 5 4 3 3 3 2 2 3 2 2 2 2 2 2 3 3 3 4 6 5 6 4 3 3 2 5 13 8 6 6 5 5 5 6 7 6
5 4 4 3 2 3 2 2 2 2 2 3 3 3 3 4 5 4 4 5 6 6 6 4 4 5 7 8 2 12 6 4 3 3 5 6 5 5
3 2 2 1 1 0 1 1 2 2 2 2 2 2 3 3 3 4 4 5 5 5 4 3 5 6 7 7 5 2 5 4 4 7 5 2 4 10
2 2 2 2 1 2 2 2 2 2 1 1 2 2 2 2 4 4 4 6 6 5 7 6 5 4 3 2 5 3 2 9 8 6 3 4 5 2
3 2 2 2 1 1 1 1 2 2 3 3 3 3 3 3 4 4 4 5 5 6 6 4 2 2 2 4 7 5 4 5 7 12 14 13 2 3
2 2 2 2 2 2 2 2 2 3 3 3 3 3 3 3 3 4 4 4 4 4 4 4 3 3 4 5 6 6 5 5 5 7 6 10 10 14
Wind_Direction
229 229 229 237 231 227 228 229 239 265 256 201 211 206 181 172 179 187 191 197 209 205 212 217 211 223 222 218 228 238 260 287 289 311 322 328 340 342
228 228 228 237 236 228 230 232 231 243 267 124 184 163 174 176 183 184 190 196 215 215 214 220 210 221 226 228 236 239 248 253 258 270 294 313 328 334
228 227 231 232 233 234 231 229 228 225 249 98 87 128 171 174 181 166 190 194 203 223 235 210 219 228 231 232 241 243 247 253 264 271 282 307 323 329
232 231 233 234 235 239 231 220 223 196 195 163 152 163 165 189 187 187 167 191 192 217 223 217 229 236 239 239 240 243 242 247 257 265 282 307 318 323
231 234 233 232 233 241 200 140 148 167 168 144 140 172 146 168 178 165 176 189 184 214 231 235 238 243 246 241 240 247 251 251 256 271 270 278 301 308
251 172 116 170 193 177 180 184 138 149 169 142 146 153 164 135 181 174 176 178 197 185 220 231 245 251 251 253 252 251 246 252 251 256 262 258 269 292
113 92 77 50 130 162 173 172 161 166 166 164 159 163 166 159 192 173 171 172 192 197 217 222 231 240 242 252 254 259 248 250 249 250 253 255 253 266
127 113 120 121 164 201 196 174 179 175 178 177 187 199 200 163 168 169 147 165 207 195 205 236 209 233 232 236 244 249 252 249 250 247 247 254 251 252
136 160 144 115 168 188 193 192 202 191 180 189 191 189 166 176 161 166 180 186 193 151 186 233 195 238 225 235 241 245 248 245 247 246 250 246 251 253
125 164 179 185 181 150 147 130 63 25 275 159 179 187 156 164 174 176 170 149 119 157 184 221 169 232 215 230 238 246 248 245 246 246 250 243 244 256
71 69 67 53 87 155 133 122 119 68 110 120 141 150 157 166 153 131 161 175 214 211 197 225 175 263 268 285 276 256 248 248 246 245 243 226 234 249
57 49 56 74 85 150 139 144 158 166 136 104 83 101 122 170 173 188 162 191 152 187 186 194 181 236 322 338 303 275 258 251 252 243 234 228 223 216
96 78 46 74 125 153 147 136 171 151 162 129 133 146 158 189 192 175 191 186 177 179 166 179 172 158 231 289 272 251 239 259 257 261 266 235 222 221
97 69 57 94 140 137 117 157 145 137 125 139 174 205 197 215 206 169 195 226 214 97 162 180 222 201 190 212 250 203 224 239 247 245 240 247 255 252
86 93 106 102 83 118 108 114 76 61 77 77 323 303 342 331 261 211 217 214 234 215 182 196 216 208 217 236 255 242 253 223 222 243 242 237 235 228
59 69 86 79 71 71 64 81 94 79 52 31 334 316 304 253 216 215 219 203 222 255 213 221 225 232 241 240 249 260 237 251 191 228 235 246 247 238
87 66 73 70 74 69 55 51 57 98 176 192 219 226 243 309 285 240 229 199 229 239 267 242 240 237 244 257 255 247 252 241 246 249 209 242 240 239
60 73 67 61 52 38 29 23 6 352 325 292 273 271 245 228 229 231 242 239 256 256 254 254 243 247 249 244 233 258 240 246 248 246 238 260 270 251
85 85 83 73 54 25 0 343 303 305 311 288 271 260 251 256 262 260 253 253 252 257 263 253 258 260 267 266 277 230 250 251 239 240 245 242 261 260
88 101 103 76 68 321 245 234 268 264 254 262 263 270 260 262 260 259 262 263 271 278 276 267 254 256 257 273 274 283 297 273 270 278 259 244 265 279
60 79 55 43 4 317 300 296 283 272 269 262 262 270 278 262 267 269 267 261 266 260 263 256 259 290 303 314 269 268 287 296 299 283 267 255 273 247
28 35 43 35 349 280 273 285 290 292 287 275 269 259 253 252 261 261 258 266 266 269 275 287 287 257 257 251 266 276 284 292 295 296 289 277 242 251
352 350 0 336 306 293 286 270 262 274 272 277 280 276 266 250 249 259 263 257 258 261 267 272 263 263 259 270 280 290 297 299 301 303 295 294 276 324